Weather in Golovino

Russia / Vladimir Oblast     56°14′11″N   42°16′07″E
temp.,
°C
wind,
m/s
gust,
m/s
humid.,
%
clouds,
%
prec.,
mm/h
press.,
hPa
HPBL,
m
9 december, thu
thu900:00−6n4796100 1.9 1021218
03:00−6n4895100 2.6 1021257
06:00−7n5996100 0.9 1021289
09:00−7n4995100 3.0 1022308
12:00−7n4893100 0.8 1023295
15:00−9n489220 0.8 1025239
18:00−14nnw379737 0.0 1027100
21:00−16n36977 0.0 102981
10 december, fri
fri1000:00−17nnw349835 0.0 103158
03:00−19n249943 0.0 103253
06:00−19nne2310053 0.0 103335
09:00−19nne2210074 0.0 103515
12:00−12ene24927 0.0 1035171
15:00−14ene22967 0.0 103613
18:00−17ene269833 0.0 103778
21:00−17e27965 0.0 1038103
11 december, sat
sat1100:00−18e26985 0.0 103872
03:00−19e259825 0.0 103964
06:00−19e239927 0.0 103938
09:00−19e23987 0.0 104038
12:00−12e38885 0.0 1040185
15:00−12e39895 0.0 1040154
18:00−14ese310895 0.0 1040147
21:00−14ese310895 0.0 1040138
12 december, sun
sun1200:00−14ese38915 0.0 1040112
03:00−15ese36925 0.0 104175
06:00−15ese36925 0.0 104167
09:00−14se37905 0.0 1040104
12:00−9sse288848 0.0 1040209
15:00−11se239429 0.0 104039
18:00−13sse35945 0.0 104056
21:00−13sse239350 0.0 104029
13 december, mon
mon1300:00−14sse239486 0.0 104037
03:00−13sse36897 0.0 103972
06:00−13sse36885 0.0 103868
09:00−13sse388877 0.0 103897
12:00−8sse31084100 0.0 1037238
15:00−9se3589100 0.0 103666
18:00−8sse3988100 0.0 1035144
21:00−7sse31086100 0.0 1034178